Overview Statistics Trail Chart Weather Telemetry Raw packets
 

This is the latest recevied weather packets stored in our database for station/object SP5FLS-15. If no packets are shown the sender has not sent any weather packets the latest 10 day(s).

<< 11 12 13 14 15 16 17 >>
Time Temp. Humidity Pressure Rain* Wind** Luminosity Snow
1788346202 19.44° C 97% 1017.1 hPa - - - -
1788345902 20° C 91% 1016.9 hPa - - - -
1788345602 20° C 93% 1017.2 hPa - - - -
1788345302 19.44° C 88% 1017 hPa - - - -
1788345002 18.89° C 86% 1017.2 hPa - - - -
1788344702 18.89° C 79% 1017.2 hPa - - - -
1788344401 19.44° C 80% 1017.2 hPa - - - -
1788344102 19.44° C 81% 1017.1 hPa - - - -
1788343802 18.89° C 78% 1017.2 hPa - - - -
1788343502 18.89° C 76% 1017.3 hPa - - - -
1788343202 18.89° C 73% 1017.2 hPa - - - -
1788342902 18.89° C 68% 1017.1 hPa - - - -
1788342602 18.89° C 78% 1017.2 hPa - - - -
1788342302 18.89° C 69% 1017.2 hPa - - - -
1788342002 18.89° C 70% 1017.2 hPa - - - -
1788341702 18.89° C 77% 1017.1 hPa - - - -
1788341402 19.44° C 76% 1017.2 hPa - - - -
1788341102 18.89° C 77% 1017.1 hPa - - - -
1788340802 18.89° C 81% 1017.1 hPa - - - -
1788340502 18.89° C 74% 1017.1 hPa - - - -
1788340202 19.44° C 61% 1017 hPa - - - -
1788339902 -10° C 31% 1017 hPa - - - -
1788339602 18.89° C 50% 1017 hPa - - - -
1788339302 18.33° C 50% 1017 hPa - - - -
1788339003 18.33° C 38% 1017 hPa - - - -

* Rain since midnight (hover to see other rain measurements)
** Current wind speed in m/s (hover to see current wind gust speed)